STARLINK-4712, 53798

Orbit data source: Space-Track

STARLINK-4712, 53798 is a payload satellite owned by SpaceX/Seattle (US) in LEO that was launched on Sun, 11 Sep 2022 UTC via an FALCON 9 launch vehicle from the Air Force Eastern Test Range (AFETR). Payload-class satellites include a variety of spacecraft equipped with specific instruments for various scientific and technological missions. These include communications satellites like Starlink; space stations such as the ISS; scientific satellites like the Hubble; Earth observation satellites from companies like Planet Labs, Umbra, and HawkEye 360; GPS; miniature CubeSats for education and research; and military/defense satellites.

Loading next visibility...
Identifier
53798, 2022-111AB
Orbit
LEO
Last TLE update
7 hours ago
Origin
Manufacturer
SpaceX/Seattle
Mission
Operational Commercial Communications
Bus & Motor
STARLINK, Unknown motor
Mass
305 kg wet, ~290 kg dry
Launch date (UTC)
2022-09-11 (3 years ago)
Launch vehicle
FALCON 9
Launch site
Air Force Eastern Test Range (AFETR)
Object type
Payload
Rocket body
Debris
Shape & HBR
Box + 1 Pan, 8.86 m
Radar Cross Section
13.562 m², Large (>1 m²)

Expand to show TLE details & history

TLE from 7 hours ago
0 STARLINK-4712
1 53798U 22111AB  25182.12242585 -.00000089  00000-0  12516-4 0  9993
2 53798  53.2177 323.0499 0001262  99.1355 260.9780 15.08838692154891
Epoch: 2025-07-01T02:56Z
TLE epoch observation values (Epoch: 2025-07-01T02:56:17.593Z)
Latitude
-0.00002°
Longitude
-0.44583°
Altitude
540.782 km
Speed
7.593 km/s
True Right ascension
21h 32m 11s
True Declination
0° 00' 00"
Sunlit
Object was in full shadow at epoch
Visualization orbit readout
Latitude
53.0215°
Longitude
97.3729°
Altitude
545.402 km
Speed
7.596 km/s
Apparent Right ascension
06h 57m 40s
Apparent Declination
11° 36' 53"
Sunlit
Object is in daylight
Visualization observer readout
Local Sidereal Time
21:21:25
Azimuth
40.916° NE
Elevation
-28.626°
Doppler factor
1
Orbital elements
Apogee altitude
540.865 km
Perigee altitude
539.119 km
Semi-major axis
6,918.129 km
Eccentricity
0.00013
Inclination
53.2177°
RAAN
323.0499°
Arg. of periapsis
99.1355°
True anomaly
Unknown
Mean anomaly
260.978°
Eccentric anomaly
Unknown
Mean motion
3.7719 °/min
Orbital period
95.44 mins
BSTAR
0.000012516
Loading maneuver chart data...
Loading SW <> Apogee altitude chart data...
Loading historical data...
Loading historical data...
Loading historical data...
Loading historical data...
Loading historical data...
Loading historical data...
Loading historical data...

STARLINK-4712 Visibility forecast

Observer location: undefined°, undefined°

Span
Click to sort rows by Start time (UTC) header in descending order
Start Az.
Max El. time (UTC)
Max El. Az.
Max El.
End time (UTC)
End Az.
5 mins2025-07-01 11:02:05.999Z168.561° S2025-07-01 11:04:05.999Z137.127° SSE17.469°2025-07-01 11:07:05.999Z86.004° E
6 mins2025-07-01 12:41:05.999Z249.206° W2025-07-01 12:43:05.999Z289.671° WNW38.931°2025-07-01 12:47:05.999Z42.287° NE
4 mins2025-07-01 14:22:05.999Z316.264° NNW2025-07-01 14:24:05.999Z351.834° N16.009°2025-07-01 14:26:05.999Z22.346° NNE
5 mins2025-07-01 17:43:05.999Z348.355° N2025-07-01 17:45:05.999Z32.547° NE22.793°2025-07-01 17:48:05.999Z81.72° E
6 mins2025-07-01 19:22:05.999Z298.021° NW2025-07-01 19:24:05.999Z250.908° W40.626°2025-07-01 19:28:05.999Z144.082° SSE
|